D-STAR ONE (SPARROW) (43881 NORAD) Tracking and Keplerian Element Data

This shows tracking and keplerian element data for the satellite.

Feedback or suggestion? Click here.




ElementValue
Catalog43881
NameD-STAR ONE (SPARROW)
Epoch Orbit33457
Epoch Day34.70604103
Epoch Year2025
RAAN309.3781
Inclination97.6163
Eccentricity0.0006956
Argument of Perigee336.1843
Mean Anonmoly23.907
Mean Motion15.23430987
Decay Rate0.00027355
L11 43881U 18111F 25034.70604103 .00027355 00000+0 11477-2 0 9994
L22 43881 97.6163 309.3781 0006956 336.1843 23.9070 15.23430987334578



Live tracking and technical data element details for D-STAR ONE (SPARROW) (NORAD 43881). D-STAR ONE (SPARROW) can be tracked NOW for your location showing map with azimuth and elevation plus other details from your city location.







IsCatalogInMostPopularTable: catalog: 43881, numindb: 309
Update: records affected: 1



GetName: 43881 D-STAR ONE (SPARROW)

Hit Count: updated at: Thu, 15 May 2025 19:05:26 GMT